Weather History for KJHW - October, 2013

Change the Weather History Date:

Thursday, October 17, 2013

  Actual Average Record
Temperature  
Mean Temperature 50 °F -  
Max Temperature 57 °F 58 °F 82 °F (1989)
Min Temperature 42 °F 35 °F 20 °F (1985)
Degree Days  
Heating Degree Days 16    
Moisture  
Dew Point 45 °F    
Average Humidity 85    
Maximum Humidity 100    
Minimum Humidity 63    
Precipitation  
Precipitation 0.17 in - - ()
Sea Level Pressure  
Sea Level Pressure 29.83 in    
Wind  
Wind Speed 6 mph (SW)    
Max Wind Speed 18 mph    
Max Gust Speed 23 mph    
Visibility 8 miles    
Events      
Averages and records for this station are not official NWS values.
T = Trace of Precipitation, MM = Missing Value Source: NWS Daily Summary

Daily Weather History Graph

Daily Weather History Graph

Search for Another Location

Airport or City:

Trip Planner

Search our weather history database for the weather conditions in past years. The results will help you decide how hot, cold, wet, or windy it might be!

Date:

Astronomy

Oct. 17, 2013 Rise Set
Actual Time 7:32 AM EDT 6:31 PM EDT
Civil Twilight 7:03 AM EDT 6:59 PM EDT
Nautical Twilight 6:31 AM EDT 7:32 PM EDT
Astronomical Twilight 5:59 AM EDT 8:04 PM EDT
Moon 5:45 PM EDT (10/17) 6:01 AM EDT (10/17)
Length of Visible Light 11h 56m
Length of Day
10h 59m
Waxing Gibbous, 98% of the Moon is Illuminated
Oct 17
Waxing Gibbous
Oct 18
Full
Oct 26
Last Quarter
Nov 3
New
Nov 10
First Quarter

Hourly Weather History & Observations

Time (EDT) Temp. Windchill Dew Point Humidity Pressure Visibility Wind Dir Wind Speed Gust Speed Precip Events Conditions
12:15 AM 50.0 °F - 46.4 °F 87% 29.89 in 10.0 mi West 5.8 mph - N/A   Scattered Clouds
12:35 AM 50.0 °F - 46.4 °F 87% 29.89 in 10.0 mi West 5.8 mph - N/A   Clear
12:55 AM 48.2 °F - 44.6 °F 87% 29.90 in 10.0 mi West 5.8 mph - N/A   Partly Cloudy
1:15 AM 48.2 °F - 46.4 °F 93% 29.90 in 10.0 mi WSW 4.6 mph - N/A   Mostly Cloudy
1:35 AM 48.2 °F - 46.4 °F 93% 29.90 in 10.0 mi SW 3.5 mph - N/A   Mostly Cloudy
1:55 AM 48.2 °F - 46.4 °F 93% 29.90 in 9.0 mi SW 3.5 mph - N/A   Scattered Clouds
2:15 AM 48.2 °F - 46.4 °F 93% 29.90 in 5.0 mi SSW 3.5 mph - N/A   Partly Cloudy
2:35 AM 48.2 °F - 44.6 °F 87% 29.90 in 1.0 mi South 3.5 mph - N/A   Mostly Cloudy
2:55 AM 46.4 °F 44.3 °F 44.6 °F 93% 29.90 in 0.8 mi SSW 4.6 mph - N/A   Mostly Cloudy
3:15 AM 48.2 °F - 46.4 °F 93% 29.89 in 5.0 mi SW 4.6 mph - N/A   Scattered Clouds
3:35 AM 48.2 °F - 46.4 °F 93% 29.90 in 5.0 mi SW 3.5 mph - N/A   Overcast
3:55 AM 48.2 °F - 44.6 °F 87% 29.89 in 5.0 mi SW 4.6 mph - N/A   Mostly Cloudy
4:15 AM 46.4 °F 44.3 °F 44.6 °F 93% 29.89 in 5.0 mi SW 4.6 mph - N/A   Clear
4:35 AM 46.4 °F 45.2 °F 44.6 °F 93% 29.89 in 3.0 mi SSW 3.5 mph - N/A   Clear
4:55 AM 46.4 °F 45.2 °F 44.6 °F 93% 29.89 in 0.5 mi South 3.5 mph - N/A   Mostly Cloudy
5:15 AM 44.6 °F 41.4 °F 42.8 °F 93% 29.89 in 0.2 mi South 5.8 mph - N/A   Overcast
5:35 AM 42.8 °F 40.1 °F 42.8 °F 100% 29.89 in 4.0 mi SSW 4.6 mph - N/A   Mostly Cloudy
5:55 AM 42.8 °F 40.1 °F 42.8 °F 100% 29.89 in 3.0 mi SSW 4.6 mph - N/A   Partly Cloudy
6:15 AM 44.6 °F 42.2 °F 44.6 °F 100% 29.89 in 5.0 mi SSW 4.6 mph - N/A   Clear
6:35 AM 46.4 °F 43.5 °F 44.6 °F 93% 29.89 in 10.0 mi SW 5.8 mph - N/A   Clear
6:55 AM 46.4 °F 42.9 °F 42.8 °F 87% 29.89 in 8.0 mi SW 6.9 mph - N/A   Clear
7:15 AM 42.8 °F 39.3 °F 41.0 °F 93% 29.89 in 7.0 mi SW 5.8 mph - N/A   Clear
7:35 AM 44.6 °F 43.1 °F 42.8 °F 93% 29.90 in 5.0 mi SSW 3.5 mph - N/A   Clear
7:55 AM 44.6 °F 42.2 °F 42.8 °F 93% 29.90 in 4.0 mi SSW 4.6 mph - N/A   Clear
8:15 AM 46.4 °F 43.5 °F 44.6 °F 93% 29.90 in 7.0 mi SW 5.8 mph - N/A   Clear
8:35 AM 46.4 °F 45.2 °F 44.6 °F 93% 29.89 in 9.0 mi SSW 3.5 mph - N/A   Clear
8:55 AM 46.4 °F 43.5 °F 44.6 °F 93% 29.89 in 10.0 mi SSW 5.8 mph - N/A   Clear
9:15 AM 48.2 °F - 46.4 °F 93% 29.90 in 10.0 mi SW 6.9 mph - N/A   Clear
9:35 AM 48.2 °F - 46.4 °F 93% 29.90 in 10.0 mi SW 6.9 mph - N/A   Clear
9:55 AM 50.0 °F - 46.4 °F 87% 29.90 in 10.0 mi SSW 9.2 mph - N/A   Clear
10:15 AM 51.8 °F - 46.4 °F 82% 29.90 in 10.0 mi SW 5.8 mph - N/A   Clear
10:35 AM 51.8 °F - 46.4 °F 82% 29.90 in 10.0 mi SW 6.9 mph - N/A   Clear
10:55 AM 53.6 °F - 46.4 °F 77% 29.89 in 10.0 mi SW 9.2 mph - N/A   Partly Cloudy
11:15 AM 53.6 °F - 46.4 °F 77% 29.89 in 10.0 mi SW 6.9 mph - N/A   Partly Cloudy
11:35 AM 53.6 °F - 46.4 °F 77% 29.88 in 10.0 mi South 6.9 mph - N/A   Clear
11:55 AM 55.4 °F - 46.4 °F 72% 29.87 in 10.0 mi SSW 5.8 mph - N/A   Clear
12:15 PM 51.8 °F - 48.2 °F 88% 29.87 in 10.0 mi South 4.6 mph - N/A   Scattered Clouds
12:35 PM 55.4 °F - 46.4 °F 72% 29.87 in 10.0 mi South 5.8 mph - N/A   Mostly Cloudy
12:55 PM 55.4 °F - 46.4 °F 72% 29.85 in 10.0 mi WSW 6.9 mph - N/A   Mostly Cloudy
1:15 PM 53.6 °F - 46.4 °F 77% 29.85 in 10.0 mi SSE 6.9 mph - N/A   Mostly Cloudy
1:35 PM 53.6 °F - 44.6 °F 72% 29.83 in 10.0 mi SSW 3.5 mph - N/A   Mostly Cloudy
1:55 PM 57.2 °F - 44.6 °F 63% 29.82 in 10.0 mi South 5.8 mph - N/A   Partly Cloudy
2:15 PM 55.4 °F - 44.6 °F 67% 29.80 in 10.0 mi East 5.8 mph - N/A   Mostly Cloudy
2:35 PM 57.2 °F - 46.4 °F 67% 29.78 in 10.0 mi Calm Calm - N/A   Mostly Cloudy
2:55 PM 57.2 °F - 44.6 °F 63% 29.78 in 10.0 mi Calm Calm - N/A   Mostly Cloudy
3:15 PM 57.2 °F - 44.6 °F 63% 29.77 in 10.0 mi SSE 4.6 mph - N/A   Overcast
3:35 PM 57.2 °F - 44.6 °F 63% 29.76 in 10.0 mi South 3.5 mph - N/A   Overcast
3:55 PM 57.2 °F - 44.6 °F 63% 29.74 in 10.0 mi Calm Calm - N/A   Overcast
4:15 PM 57.2 °F - 46.4 °F 67% 29.73 in 10.0 mi Calm Calm - N/A   Overcast
4:35 PM 55.4 °F - 48.2 °F 77% 29.74 in 10.0 mi West 5.8 mph - N/A   Overcast
4:55 PM 53.6 °F - 48.2 °F 82% 29.72 in 10.0 mi WNW 8.1 mph - 0.01 in   Overcast
5:15 PM 53.6 °F - 46.4 °F 77% 29.74 in 10.0 mi West 12.7 mph - N/A   Overcast
5:35 PM 51.8 °F - 46.4 °F 82% 29.76 in 6.0 mi West 12.7 mph - 0.04 in   Overcast
5:55 PM 51.8 °F - 48.2 °F 88% 29.76 in 10.0 mi WSW 9.2 mph - 0.05 in   Overcast
6:15 PM 51.8 °F - 48.2 °F 88% 29.77 in 7.0 mi West 8.1 mph - 0.05 in   Overcast
6:35 PM 51.8 °F - 48.2 °F 88% 29.73 in 3.0 mi ENE 8.1 mph - 0.10 in   Overcast
6:55 PM 50.0 °F - 48.2 °F 94% 29.72 in 0.5 mi NE 8.1 mph - 0.11 in   Overcast
7:15 PM 50.0 °F - 48.2 °F 94% 29.73 in 0.8 mi Calm Calm - N/A   Overcast
7:35 PM 50.0 °F - 48.2 °F 94% 29.74 in 10.0 mi West 8.1 mph - N/A   Overcast
7:55 PM 50.0 °F - 46.4 °F 87% 29.75 in 10.0 mi West 9.2 mph - N/A   Overcast
8:15 PM 50.0 °F - 46.4 °F 87% 29.76 in 9.0 mi West 12.7 mph - N/A   Overcast
8:35 PM 48.2 °F - 46.4 °F 93% 29.77 in 4.0 mi West 12.7 mph 20.7 mph N/A   Overcast
8:55 PM 48.2 °F - 44.6 °F 87% 29.77 in 8.0 mi WSW 11.5 mph - N/A   Mostly Cloudy
9:15 PM 48.2 °F - 44.6 °F 87% 29.77 in 10.0 mi WSW 13.8 mph 19.6 mph N/A   Overcast
9:35 PM 48.2 °F - 44.6 °F 87% 29.78 in 10.0 mi WSW 13.8 mph 19.6 mph N/A   Overcast
9:55 PM 46.4 °F 39.8 °F 44.6 °F 93% 29.78 in 9.0 mi WSW 16.1 mph 20.7 mph N/A   Overcast
10:15 PM 46.4 °F 41.1 °F 44.6 °F 93% 29.78 in 10.0 mi SW 11.5 mph - N/A   Overcast
10:35 PM 46.4 °F 39.8 °F 42.8 °F 87% 29.78 in 10.0 mi WSW 16.1 mph 23.0 mph N/A   Overcast
10:55 PM 46.4 °F 39.8 °F 42.8 °F 87% 29.78 in 10.0 mi WSW 16.1 mph 20.7 mph N/A   Overcast
11:15 PM 46.4 °F 41.1 °F 42.8 °F 87% 29.79 in 10.0 mi SW 11.5 mph 18.4 mph N/A   Overcast
11:35 PM 46.4 °F 39.5 °F 42.8 °F 87% 29.79 in 10.0 mi SW 17.3 mph 23.0 mph N/A   Overcast
11:55 PM 46.4 °F 39.2 °F 42.8 °F 87% 29.79 in 10.0 mi SW 18.4 mph - N/A   Overcast